• In Slovakia
  • List of Countries
  • For 7 days
  • Water Temperature
  • Satellite Maps
  • Weather Map
  • Weather Widgets
  • user-avatar
    Login

    Hourly Weather Ganja

    Today, 11 December, Monday

    Time Temperature Precipitation Wind Pressure Humidity
    00:00 +5°C° 0 mm 2 mps 728 mmHg 52%
    01:00 +5°C° 0 mm 2 mps 728 mmHg 51%
    02:00 +5°C° 0 mm 2 mps 728 mmHg 50%
    03:00 +4°C° 0 mm 3 mps 728 mmHg 48%
    04:00 +4°C° 0 mm 3 mps 728 mmHg 48%
    05:00 +4°C° 0 mm 3 mps 728 mmHg 47%
    06:00 +3°C° 0 mm 4 mps 728 mmHg 47%
    07:00 +4°C° 0 mm 4 mps 728 mmHg 45%
    08:00 +5°C° 0 mm 4 mps 729 mmHg 43%
    09:00 +6°C° 0 mm 4 mps 729 mmHg 41%
    10:00 +8°C° 0 mm 4 mps 729 mmHg 38%
    11:00 +9°C° 0 mm 5 mps 729 mmHg 35%
    12:00 +11°C° 0 mm 6 mps 729 mmHg 32%
    13:00 +11°C° 0 mm 6 mps 729 mmHg 33%
    14:00 +12°C° 0 mm 5 mps 729 mmHg 34%
    15:00 +12°C° 0 mm 5 mps 729 mmHg 36%
    16:00 +10°C° 0 mm 5 mps 730 mmHg 40%
    17:00 +10°C° 0 mm 4 mps 731 mmHg 45%
    18:00 +7°C° 0 mm 4 mps 732 mmHg 50%
    19:00 +7°C° 0 mm 4 mps 732 mmHg 50%
    20:00 +7°C° 0 mm 3 mps 733 mmHg 50%
    21:00 +7°C° 0 mm 3 mps 733 mmHg 51%
    22:00 +5°C° 0 mm 3 mps 734 mmHg 50%
    23:00 +6°C° 0 mm 2 mps 734 mmHg 50%

    Tomorrow, 12 December, Tuesday

    Time Temperature Precipitation Wind Pressure Humidity
    00:00 +6°C° 0 mm 2 mps 734 mmHg 50%
    01:00 +5°C° 0 mm 2 mps 734 mmHg 51%
    02:00 +6°C° 0 mm 1 mps 734 mmHg 52%
    03:00 +6°C° 0 mm 1 mps 735 mmHg 53%
    04:00 +5°C° 0 mm 1 mps 735 mmHg 54%
    05:00 +5°C° 0 mm 1 mps 735 mmHg 55%
    06:00 +5°C° 0 mm 1 mps 735 mmHg 56%
    07:00 +6°C° 0 mm 1 mps 735 mmHg 54%
    08:00 +7°C° 0 mm 1 mps 735 mmHg 52%
    09:00 +8°C° 0 mm 1 mps 735 mmHg 50%
    10:00 +8°C° 0 mm 1 mps 735 mmHg 49%
    11:00 +9°C° 0 mm 1 mps 734 mmHg 48%
    12:00 +10°C° 0 mm 1 mps 734 mmHg 48%
    13:00 +10°C° 0 mm 1 mps 733 mmHg 49%
    14:00 +10°C° 0 mm 1 mps 733 mmHg 50%
    15:00 +10°C° 0 mm 1 mps 733 mmHg 51%
    16:00 +9°C° 0 mm 1 mps 733 mmHg 55%
    17:00 +8°C° 0 mm 1 mps 733 mmHg 60%
    18:00 +7°C° 0 mm 1 mps 733 mmHg 64%
    19:00 +7°C° 0 mm 1 mps 733 mmHg 65%
    20:00 +7°C° 0 mm 1 mps 733 mmHg 67%
    21:00 +6°C° 0 mm 1 mps 733 mmHg 69%
    22:00 +6°C° 0 mm 1 mps 733 mmHg 69%
    23:00 +6°C° 0 mm 1 mps 733 mmHg 69%

    Day after tomorrow, 13 December, Wednesday

    Time Temperature Precipitation Wind Pressure Humidity
    00:00 +6°C° 0 mm 1 mps 733 mmHg 70%
    01:00 +6°C° 0 mm 1 mps 733 mmHg 69%
    02:00 +5°C° 0 mm 1 mps 732 mmHg 69%
    03:00 +5°C° 0 mm 1 mps 732 mmHg 69%
    04:00 +5°C° 0 mm 1 mps 732 mmHg 68%
    05:00 +5°C° 0 mm 1 mps 732 mmHg 68%
    06:00 +5°C° 0 mm 1 mps 732 mmHg 67%
    07:00 +6°C° 0 mm 1 mps 732 mmHg 64%
    08:00 +7°C° 0 mm 1 mps 732 mmHg 61%
    09:00 +8°C° 0 mm 1 mps 732 mmHg 58%
    10:00 +9°C° 0 mm 1 mps 732 mmHg 56%
    11:00 +10°C° 0 mm 1 mps 731 mmHg 55%
    12:00 +9°C° 0 mm 2 mps 731 mmHg 53%
    13:00 +10°C° 0 mm 2 mps 730 mmHg 54%
    14:00 +11°C° 0 mm 1 mps 730 mmHg 55%
    15:00 +11°C° 0 mm 1 mps 730 mmHg 56%
    16:00 +9°C° 0 mm 1 mps 730 mmHg 62%
    17:00 +8°C° 0 mm 1 mps 730 mmHg 68%
    18:00 +7°C° 0 mm 1 mps 730 mmHg 73%
    19:00 +7°C° 0 mm 1 mps 730 mmHg 74%
    20:00 +7°C° 0 mm 1 mps 730 mmHg 76%
    21:00 +6°C° 0 mm 1 mps 730 mmHg 77%
    22:00 +6°C° 0 mm 1 mps 730 mmHg 79%
    23:00 +6°C° 0 mm 1 mps 730 mmHg 80%

    14 December, Thursday

    Time Temperature Precipitation Wind Pressure Humidity
    00:00 +5°C° 0 mm 1 mps 730 mmHg 81%
    01:00 +5°C° 0 mm 1 mps 730 mmHg 82%
    02:00 +4°C° 0 mm 0 mps 730 mmHg 82%
    03:00 +4°C° 0 mm 0 mps 730 mmHg 83%
    04:00 +4°C° 0 mm 0 mps 730 mmHg 82%
    05:00 +4°C° 0 mm 0 mps 730 mmHg 82%
    06:00 +4°C° 0 mm 0 mps 730 mmHg 81%
    07:00 +6°C° 0 mm 1 mps 730 mmHg 79%
    08:00 +7°C° 0 mm 1 mps 730 mmHg 76%
    09:00 +7°C° 0 mm 1 mps 730 mmHg 74%
    10:00 +8°C° 0 mm 1 mps 730 mmHg 72%
    11:00 +9°C° 0 mm 1 mps 729 mmHg 71%
    12:00 +8°C° 0 mm 2 mps 729 mmHg 70%
    13:00 +8°C° 0 mm 2 mps 729 mmHg 72%
    14:00 +8°C° 0 mm 2 mps 729 mmHg 73%
    15:00 +8°C° 0 mm 2 mps 728 mmHg 75%
    16:00 +8°C° 0 mm 2 mps 728 mmHg 79%
    17:00 +8°C° 0 mm 1 mps 729 mmHg 83%
    18:00 +7°C° 0 mm 1 mps 729 mmHg 88%
    19:00 +7°C° 0 mm 1 mps 729 mmHg 88%
    20:00 +7°C° 0 mm 1 mps 729 mmHg 87%
    21:00 +7°C° 0 mm 1 mps 729 mmHg 87%
    22:00 +7°C° 0 mm 1 mps 729 mmHg 87%
    23:00 +6°C° 0 mm 1 mps 729 mmHg 87%

    15 December, Friday

    Time Temperature Precipitation Wind Pressure Humidity
    00:00 +5°C° 0 mm 0 mps 729 mmHg 87%
    01:00 +5°C° 0 mm 0 mps 729 mmHg 86%
    02:00 +6°C° 0 mm 1 mps 728 mmHg 85%
    03:00 +6°C° 0 mm 1 mps 728 mmHg 85%
    04:00 +6°C° 0 mm 1 mps 728 mmHg 84%
    05:00 +6°C° 0 mm 1 mps 728 mmHg 83%
    06:00 +6°C° 0 mm 1 mps 728 mmHg 82%
    07:00 +6°C° 0 mm 1 mps 728 mmHg 78%
    08:00 +7°C° 0 mm 1 mps 729 mmHg 74%
    09:00 +8°C° 0 mm 1 mps 729 mmHg 71%
    10:00 +8°C° 0 mm 1 mps 729 mmHg 68%
    11:00 +9°C° 0 mm 1 mps 728 mmHg 66%
    12:00 +10°C° 0 mm 1 mps 728 mmHg 63%
    13:00 +10°C° 0 mm 1 mps 728 mmHg 63%
    14:00 +10°C° 0 mm 1 mps 728 mmHg 64%
    15:00 +10°C° 0 mm 1 mps 728 mmHg 64%
    16:00 +9°C° 0 mm 1 mps 728 mmHg 69%
    17:00 +8°C° 0 mm 1 mps 729 mmHg 74%
    18:00 +7°C° 0 mm 1 mps 729 mmHg 78%
    19:00 +7°C° 0 mm 1 mps 730 mmHg 79%
    20:00 +7°C° 0 mm 1 mps 730 mmHg 80%
    21:00 +6°C° 0 mm 1 mps 730 mmHg 81%
    22:00 +6°C° 0 mm 1 mps 730 mmHg 81%
    23:00 +6°C° 0 mm 1 mps 731 mmHg 81%

    16 December, Saturday

    Time Temperature Precipitation Wind Pressure Humidity
    00:00 +6°C° 0 mm 1 mps 731 mmHg 82%
    01:00 +6°C° 0 mm 1 mps 731 mmHg 81%
    02:00 +6°C° 0 mm 1 mps 731 mmHg 81%
    03:00 +5°C° 0 mm 0 mps 731 mmHg 81%
    04:00 +5°C° 0 mm 0 mps 731 mmHg 81%
    05:00 +5°C° 0 mm 0 mps 731 mmHg 81%
    06:00 +4°C° 0 mm 0 mps 731 mmHg 81%
    07:00 +5°C° 0 mm 0 mps 732 mmHg 78%
    08:00 +6°C° 0 mm 0 mps 732 mmHg 76%
    09:00 +8°C° 0 mm 1 mps 732 mmHg 73%
    10:00 +8°C° 0 mm 1 mps 732 mmHg 72%
    11:00 +9°C° 0 mm 1 mps 731 mmHg 71%
    12:00 +9°C° 0 mm 1 mps 731 mmHg 70%
    13:00 +8°C° 0 mm 2 mps 731 mmHg 71%
    14:00 +8°C° 0 mm 2 mps 731 mmHg 73%
    15:00 +8°C° 0 mm 2 mps 731 mmHg 74%
    16:00 +8°C° 0 mm 1 mps 731 mmHg 79%
    17:00 +7°C° 0 mm 1 mps 731 mmHg 85%
    18:00 +7°C° 0 mm 1 mps 732 mmHg 90%
    19:00 +6°C° 0 mm 1 mps 732 mmHg 89%
    20:00 +6°C° 0 mm 1 mps 732 mmHg 89%
    21:00 +6°C° 0 mm 1 mps 732 mmHg 89%
    22:00 +6°C° 0 mm 1 mps 732 mmHg 88%
    23:00 +6°C° 0 mm 1 mps 732 mmHg 87%
    Show more